Вернуться в каталог

STARLINK-30563

АктивенСвязьVLEO
NORAD 58042·PAYLOAD·🇺🇸 United States

Запущен Oct 9, 2023 с Vandenberg Space Force Base

Loading…

Ближайшие Пролёты (ближайшие 24 часа)

TLE

СвежийSource: CelesTrak SupGP

Эпоха: Sep 15, 2026, 03:11 UTC

1 58042C 23156Q   26258.13312500 -.00013381  00000+0 -39521-3 0  2582
2 58042  53.1570 274.4911 0001141  91.9939 276.7066 15.34408974    17

Отслеживайте STARLINK-30563 в реальном времени с AllMySat

Download on the App Store